Simultaneous Nadir Overpasses (SNOs) Predictions

Prediction of SNOs between GOES-14 and AQUA Satellite Orbit:

Table of predicted SNOs for the next 14.0 days since TLE Epoch: 6/8/2024
Index Date Time (GOES-14) GOES-14 Lat,Lon AQUA Lat,Lon Distance(km) Time Diff (sec)
1 06/09/2024 21:20:46 0.05,-108.55 0.28,-107.40 130.36 80
2 06/10/2024 09:38:14 -0.08,-108.58 0.73,-112.28 420.96 80
3 06/12/2024 09:24:20 -0.07,-108.58 -0.13,-108.23 39.26 80
4 06/14/2024 21:25:22 0.08,-108.54 -0.01,-109.09 61.91 80
5 06/16/2024 21:11:25 0.07,-108.54 0.81,-105.02 399.73 80
6 06/17/2024 09:28:52 -0.10,-108.57 0.21,-109.89 150.55 80
7 06/19/2024 09:14:55 -0.10,-108.56 -0.69,-105.83 310.90 80
8 06/19/2024 21:32:31 0.13,-108.52 -0.32,-110.74 251.94 80
9 06/21/2024 21:18:32 0.13,-108.51 0.53,-106.67 209.67 80
